Regional Weather Roundup
Issued by NWS

Home | Current Version | Previous Version | Graphics & Text | Print | Product List | Glossary On
Versions: 1 2 3 4 5 6 7 8 9 10 11 12 13 14 15 16 17 18 19 20 21 22 23 24 25 26 27 28 29 30 31 32 33 34 35 36 37 38 39 40 41 42 43 44 45 46 47 48 49 50
000
ASUS45 KPSR 060400
RWRAZ

ARIZONA REGIONAL HOURLY WEATHER ROUNDUP
NATIONAL WEATHER SERVICE PHOENIX AZ
900 PM MST TUE MAY 05 2015

NOTE: FAIR INDICATES FEW OR NO CLOUDS BELOW 12,000 FEET WITH NO
SIGNIFICANT WEATHER AND/OR OBSTRUCTIONS TO VISIBILITY.

AZZ001>003-036-060500-
NORTHWEST ARIZONA

CITY           SKY/WX    TMP DP  RH WIND       PRES   REMARKS
KINGMAN        CLEAR     64  39  39 SW9       29.88R
$$

AZZ004>008-015-016-018-060500-
NORTH CENTRAL ARIZONA

CITY           SKY/WX    TMP DP  RH WIND       PRES   REMARKS
GRAND CANYON   PTCLDY    50  41  71 SW10      30.01R
WILLIAMS       PTCLDY    50  41  71 SW10G20   30.10R
PRESCOTT       CLEAR     58  41  53 S13       29.97R
FLAGSTAFF      NOT AVBL
PAYSON         PTCLDY    54  45  71 CALM      30.02R
PAGE           CLOUDY    57  50  77 S7        29.87R
$$

AZZ009>014-017-060500-
NORTHEAST ARIZONA

CITY           SKY/WX    TMP DP  RH WIND       PRES   REMARKS
WINSLOW        NOT AVBL
SAINT JOHNS    MOCLDY    53  44  71 SW16      29.99R
WINDOW ROCK    LGT RAIN  49  44  83 W5        30.02R
SHOW LOW       MOCLDY    48  41  76 S12       30.05R
$$

AZZ023-060500-
GREATER PHOENIX AREA

CITY           SKY/WX    TMP DP  RH WIND       PRES   REMARKS
PHOENIX        PTCLDY    81  47  30 N6        29.80R
LUKE AFB       PTCLDY    78  53  42 CALM      29.80R
DEER VALLEY    PTCLDY    76  48  37 CALM      29.82R
SCOTTSDALE     PTCLDY    78  47  33 CALM      29.84R
MESA-GATEWAY   MOCLDY    79  46  31 CALM      29.84
CHANDLER       PTCLDY    81  46  30 VRB5      29.82R
$$

AZZ027-028-060500-
SOUTHWEST MARICOPA COUNTY AND PINAL COUNTY

CITY           SKY/WX    TMP DP  RH WIND       PRES   REMARKS
CASA GRANDE    MOCLDY    75  50  41 CALM      29.82R
GILA BEND      CLEAR     78  44  29 SW15      29.81R
$$

AZZ503-504-507>509-060500-
SOUTHEAST ARIZONA

CITY           SKY/WX    TMP DP  RH WIND       PRES   REMARKS
TUCSON         PTCLDY    75  43  31 CALM      29.90R
DAVIS-MONTHAN  PTCLDY    72  43  34 CALM      29.89R
NOGALES        CLEAR     63  32  31 CALM      29.97R
SIERRA VISTA   PTCLDY    63  33  32 SW8       30.01R
SAFFORD        CLEAR     64  43  46 N5        29.91R
$$

AZZ020-021-025-026-031-060500-
SOUTHWEST ARIZONA

CITY           SKY/WX    TMP DP  RH WIND       PRES   REMARKS
YUMA           PTCLDY    77  48  35 S9        29.77R
$$

CAZ031-033-041-043-047-048-061-060500-
SOUTHERN CALIFORNIA

CITY           SKY/WX    TMP DP  RH WIND       PRES   REMARKS
DOWNTOWN L.A.  PTCLDY    60  50  69 CALM      29.94R
L.A. AIRPORT   PTCLDY    58  52  80 W8        29.96R
SAN DIEGO      PTCLDY    62  49  62 W5        29.98R
BURBANK        PTCLDY    59  46  62 S3        29.94R
ONTARIO        PTCLDY    59  47  64 W9        29.94R
RIVERSIDE      CLEAR     60  48  64 VRB5      29.94R
PALM SPRINGS   MOCLDY    74  43  32 NW20G25   29.78R
EL CENTRO NAS  MOCLDY    76  41  28 W18       29.78R
IMPERIAL       MOCLDY    73  43  33 W9        29.76R
BLYTHE         MOCLDY    82  41  23 S8        29.74R
$$

NVZ020-UTZ003-060500-
SOUTHERN NEVADA-UTAH

CITY           SKY/WX    TMP DP  RH WIND       PRES   REMARKS
LAS VEGAS      NOT AVBL
SALT LAKE CITY CLOUDY    59  49  69 NE9       29.83R
$$

NMZ009-TXZ055-060500-
NEW MEXICO-WEST TEXAS

CITY           SKY/WX    TMP DP  RH WIND       PRES   REMARKS
ALBUQUERQUE    MOCLDY    53  47  79 S6        29.96R
EL PASO        PTCLDY    74  32  21 W10       29.92R
$$


........................KEY........................
SKY/WX - SKY CONDITION/WEATHER
TMP    - TEMPERATURE IN FAHRENHEIT
DP     - DEW POINT IN FAHRENHEIT
RH     - RELATIVE HUMIDITY IN PERCENT
WIND   - DIRECTION AND SPEED IN MILES PER HOUR (MPH)
VRB    - VARIABLE WIND DIRECTION
PRES   - MEAN SEA LEVEL PRESSURE IN INCHES OF MERCURY
         F - FALLING PRESSURE   R - RISING PRESSURE
         S - STEADY PRESSURE
VSB    - VISIBILITY IN MILES
HX     - HEAT INDEX IN FAHRENHEIT
WCI    - WIND CHILL INDEX IN FAHRENHEIT
TC     - TEMPERATURE IN CELSIUS WHICH IS ALSO KNOWN AS
         TEMPERATURE IN CENTIGRADE
AFB    - AIR FORCE BASE
         LUKE AFB IS LUKE AIR FORCE BASE
         DAVIS-MONTHAN IS DAVIS-MONTHAN AIR FORCE BASE
NAS    - NAVAL AIR STATION
         EL CENTRO NAS IS EL CENTRO NAVAL AIR STATION
N/A    - NOT AVAILABLE



USA.gov is the U.S. government's official web portal to all federal, state and local government web resources and services.